User: anonymous   Login
Location: Unspecified
(0.0000°N, 0.0000°E)
Time: 21:25:48
(UTC+00:00)
Language:

STARLINK-11644 [DTC] - Orbit

View from above orbital plane
View from above orbital plane
View from above satellite
View from above satellite

Ground track
Ground track

The orbit is defined by the following mean orbital elements,

1 63672U          26145.38386922 +.00000000 +00000-0 +14218-2 0 00004
2 63672  43.0024 176.1446 0000551 201.8080 158.2765 15.70946160    01
Epoch (UTC): 25 May 2026 09:12:46
Eccentricity: 0.0000551
inclination: 43.0024°
perigee height: 356 km
apogee height: 357 km
right ascension of ascending node: 176.1446°
argument of perigee: 201.8080°
revolutions per day: 15.70946160
mean anomaly at epoch: 158.2765°

The dashed part of the orbit path shows where the satellite is in the earth's shadow,  

DLR